"2016-01-09 00:00:00",1268571,4.901,96.8,6.171,1.167,-1.871,96.7643,-8.94,-7.599,90.5,0,109.1,13.57,-8.22,58.8
"2016-01-09 00:00:30",1268572,5.053,96.5,5.852,1.104,-1.986,96.7643,-8.94,-7.599,90.5,0,109.1,13.56,-8.22,58.5
"2016-01-09 00:01:00",1268573,4.894,95.8,5.817,1.153,-2.066,96.7643,-8.94,-7.62,90.5,0,109.1,13.56,-8.22,57.8
"2016-01-09 00:01:30",1268574,4.464,93.7,6.649,1.241,-2.539,96.7643,-8.94,-7.673,90.4,0,109.2,13.56,-8.22,55.7
"2016-01-09 00:02:00",1268575,4.069,94.1,6.657,1.279,-3.34,96.7643,-8.94,-7.668,90.4,0,109.1,13.56,-8.22,56.1
"2016-01-09 00:02:30",1268576,4.396,96.5,6.579,1.269,-2.89,96.7643,-8.94,-7.7,90.4,0,109.1,13.56,-8.22,58.5
"2016-01-09 00:03:00",1268577,4.411,96.8,6.528,1.289,-3.345,96.76231,-8.94,-7.722,90.4,0,109.1,13.56,-8.22,58.8
"2016-01-09 00:03:30",1268578,4.906,98.2,6.411,1.212,-2.153,96.75465,-8.96,-7.681,90.4,0,109.1,13.56,-8.24,60.2
"2016-01-09 00:04:00",1268579,4.662,96.4,6.441,1.293,-2.017,96.74613,-8.98,-7.68,90.4,0,109.1,13.56,-8.26,58.4
"2016-01-09 00:04:30",1268580,4.836,97.6,6.233,1.244,-2.006,96.73989,-9,-7.655,90.4,0,109.1,13.56,-8.28,59.6
"2016-01-09 00:05:00",1268581,4.999,98.2,5.723,1.191,-1.692,96.73791,-9.01,-7.632,90.4,0,109.1,13.56,-8.28,60.2
"2016-01-09 00:05:30",1268582,4.98,97.7,6.037,1.193,-2.231,96.73478,-9.01,-7.631,90.4,0,109.1,13.57,-8.29,59.7
"2016-01-09 00:06:00",1268583,5.165,97.5,6.366,1.119,-2.147,96.73052,-9.02,-7.657,90.4,0,109.1,13.58,-8.30,59.5
"2016-01-09 00:06:30",1268584,5.106,97.1,6.3,1.156,-1.962,96.73052,-9.02,-7.649,90.5,0,109.1,13.57,-8.30,59.1
"2016-01-09 00:07:00",1268585,5.142,96.8,6.239,1.165,-2.546,96.73024,-9.02,-7.651,90.4,0,109.1,13.57,-8.30,58.8
"2016-01-09 00:07:30",1268586,4.795,94.6,6.201,1.217,-2.539,96.73024,-9.02,-7.668,90.4,0,109.1,13.58,-8.30,56.6
"2016-01-09 00:08:00",1268587,4.638,93.1,6.862,1.303,-3.525,96.73024,-9.02,-7.741,90.4,0,109.1,13.57,-8.30,55.1
"2016-01-09 00:08:30",1268588,4.135,89.8,6.476,1.214,-4.716,96.73024,-9.02,-7.868,90.2,0,109.1,13.58,-8.30,51.8
"2016-01-09 00:09:00",1268589,4.285,90.7,6.544,1.258,-4.328,96.72996,-9.03,-7.763,90.4,0,109.1,13.58,-8.31,52.7
"2016-01-09 00:09:30",1268590,5.04,95.1,6.657,1.273,-2.591,96.72939,-9.03,-7.692,90.4,0,109.1,13.58,-8.31,57.1
"2016-01-09 00:10:00",1268591,5.016,94.7,6.732,1.253,-2.407,96.72173,-9.05,-7.714,90.4,0,109.1,13.58,-8.33,56.7
"2016-01-09 00:10:30",1268592,5.203,94.3,6.403,1.237,-2.03,96.7152,-9.06,-7.721,90.4,0,109.1,13.58,-8.34,56.3
"2016-01-09 00:11:00",1268593,5.246,94,6.523,1.196,-2.084,96.71179,-9.07,-7.68,90.4,0,109.1,13.58,-8.35,56.0
"2016-01-09 00:11:30",1268594,5.073,95,6.37,1.215,-2.143,96.70611,-9.09,-7.724,90.4,0,109.1,13.58,-8.37,57.0
"2016-01-09 00:12:00",1268595,5.28,95,6.077,1.205,-1.898,96.7047,-9.09,-7.71,90.4,0,109.1,13.58,-8.37,57.0
"2016-01-09 00:12:30",1268596,5.256,95.3,5.619,1.193,-1.852,96.70271,-9.09,-7.693,90.4,0,109.2,13.58,-8.37,57.3
"2016-01-09 00:13:00",1268597,5.333,95.2,6.003,1.161,-2.196,96.69845,-9.11,-7.703,90.4,0,109.1,13.58,-8.39,57.2
"2016-01-09 00:13:30",1268598,5.408,95.9,5.95,1.163,-2.402,96.69617,-9.11,-7.712,90.4,0,109.1,13.58,-8.39,57.9
"2016-01-09 00:14:00",1268599,5.426,94.4,6.379,1.245,-2.705,96.69617,-9.11,-7.766,90.4,0,109.1,13.58,-8.39,56.4
"2016-01-09 00:14:30",1268600,5.417,94.3,6.445,1.252,-2.435,96.69645,-9.11,-7.752,90.4,0,109.1,13.58,-8.39,56.3
"2016-01-09 00:15:00",1268601,5.053,92.4,6.771,1.315,-3.247,96.69617,-9.11,-7.812,90.4,0,109.1,13.58,-8.39,54.4
"2016-01-09 00:15:30",1268602,5.101,91.8,6.451,1.289,-3.288,96.69617,-9.11,-7.852,90.3,0,109.1,13.58,-8.39,53.8
"2016-01-09 00:16:00",1268603,4.48,90,6.597,1.242,-3.773,96.69617,-9.11,-7.813,90.4,0,109.1,13.58,-8.39,52.0
"2016-01-09 00:16:30",1268604,5.083,93.2,6.687,1.3,-2.38,96.69617,-9.11,-7.761,90.4,0,109.1,13.58,-8.39,55.2
"2016-01-09 00:17:00",1268605,5.036,93.1,6.698,1.278,-2.257,96.69447,-9.12,-7.78,90.4,0,109.1,13.58,-8.40,55.1
"2016-01-09 00:17:30",1268606,5.362,94.8,6.171,1.17,-1.536,96.69079,-9.13,-7.771,90.4,0,109.1,13.58,-8.41,56.8
"2016-01-09 00:18:00",1268607,5.349,96.4,5.699,1.241,-1.652,96.68142,-9.15,-7.749,90.4,0,109.1,13.58,-8.43,58.4
"2016-01-09 00:18:30",1268608,5.285,95,6.453,1.197,-2.041,96.67801,-9.16,-7.778,90.4,0,109.1,13.57,-8.44,57.0
"2016-01-09 00:19:00",1268609,5.493,95.2,6.197,1.181,-1.775,96.67234,-9.17,-7.783,90.4,0,109.1,13.57,-8.45,57.2
"2016-01-09 00:19:30",1268610,5.292,97.5,5.938,1.194,-1.803,96.67036,-9.18,-7.755,90.4,0,109.1,13.57,-8.46,59.5
"2016-01-09 00:20:00",1268611,5.219,98.2,6.071,1.193,-1.852,96.66921,-9.18,-7.781,90.4,0,109.1,13.57,-8.46,60.2
"2016-01-09 00:20:30",1268612,5.476,97.4,5.992,1.122,-2.009,96.66637,-9.19,-7.772,90.4,0,109.1,13.57,-8.47,59.4
"2016-01-09 00:21:00",1268613,5.567,97.6,6.06,1.099,-2.255,96.66296,-9.2,-7.804,90.4,0,109.1,13.57,-8.48,59.6
"2016-01-09 00:21:30",1268614,4.999,98.1,6.615,1.274,-2.646,96.66239,-9.2,-7.842,90.4,0,109.1,13.57,-8.48,60.1
"2016-01-09 00:22:00",1268615,4.966,99.8,6.359,1.257,-1.925,96.66322,-9.2,-7.813,90.4,0,109.1,13.57,-8.48,61.8
"2016-01-09 00:22:30",1268616,4.756,99.8,6.552,1.251,-2.255,96.66404,-9.19,-7.83,90.4,0,109.1,13.58,-8.47,61.8
"2016-01-09 00:23:00",1268617,4.326,98.9,6.518,1.276,-3.122,96.66569,-9.19,-7.857,90.4,0,109.1,13.58,-8.47,60.9
"2016-01-09 00:23:30",1268618,4.41,98.9,6.557,1.276,-3.408,96.66404,-9.19,-7.928,90.3,0,109.1,13.58,-8.47,60.9
"2016-01-09 00:24:00",1268619,4.437,97.5,6.412,1.311,-3.042,96.66459,-9.19,-7.924,90.4,0,109.1,13.58,-8.47,59.5
"2016-01-09 00:24:30",1268620,4.821,99.4,6.494,1.31,-2.119,96.66704,-9.19,-7.863,90.4,0,109.1,13.58,-8.47,61.4
"2016-01-09 00:25:00",1268621,4.957,100,6.226,1.266,-1.921,96.6609,-9.2,-7.859,90.4,0,109.1,13.58,-8.48,62.0
"2016-01-09 00:25:30",1268622,4.956,100.7,6.15,1.232,-1.843,96.6549,-9.22,-7.839,90.4,0,109.1,13.59,-8.50,62.7
"2016-01-09 00:26:00",1268623,5.093,102,6.063,1.116,-1.702,96.64781,-9.23,-7.854,90.4,0,109.1,13.58,-8.51,64.0
"2016-01-09 00:26:30",1268624,5.145,99.5,6.113,1.151,-1.436,96.64715,-9.24,-7.857,90.5,0,109.1,13.58,-8.52,61.5
"2016-01-09 00:27:00",1268625,4.846,101.1,5.805,1.244,-1.991,96.64516,-9.24,-7.849,90.5,0,109.1,13.58,-8.52,63.1
"2016-01-09 00:27:30",1268626,4.876,102.3,6.286,1.156,-1.764,96.64342,-9.25,-7.856,90.5,0,109.1,13.58,-8.53,64.3
"2016-01-09 00:28:00",1268627,4.724,102.9,6.213,1.198,-1.716,96.64258,-9.25,-7.857,90.5,0,109.1,13.58,-8.53,64.9
"2016-01-09 00:28:30",1268628,4.773,101.7,6.416,1.292,-2.19,96.64082,-9.25,-7.89,90.4,0,109.1,13.58,-8.53,63.7
"2016-01-09 00:29:00",1268629,4.792,100.5,6.376,1.285,-2.501,96.63879,-9.26,-7.897,90.4,0,109.1,13.58,-8.54,62.5
"2016-01-09 00:29:30",1268630,5.07,98.5,6.78,1.271,-2.487,96.63931,-9.26,-7.942,90.4,0,109.1,13.58,-8.54,60.5
"2016-01-09 00:30:00",1268631,5.061,97.5,6.475,1.232,-2.803,96.63931,-9.26,-7.948,90.4,0,109.1,13.58,-8.54,59.5
"2016-01-09 00:30:30",1268632,4.622,98.7,7.026,1.267,-3.376,96.6415,-9.25,-7.958,90.4,0,109.1,13.58,-8.53,60.7
"2016-01-09 00:31:00",1268633,5.006,99.8,6.598,1.239,-2.559,96.64233,-9.25,-7.944,90.4,0,109.1,13.58,-8.53,61.8
"2016-01-09 00:31:30",1268634,4.974,99.3,6.427,1.274,-2.177,96.64342,-9.25,-7.952,90.4,0,109.1,13.58,-8.53,61.3
"2016-01-09 00:32:00",1268635,5.028,99.7,6.445,1.302,-1.808,96.64535,-9.24,-7.929,90.4,0,109.1,13.58,-8.52,61.7
"2016-01-09 00:32:30",1268636,5.192,102,5.896,1.197,-1.3,96.64423,-9.24,-7.902,90.5,0,109.1,13.58,-8.52,64.0
"2016-01-09 00:33:00",1268637,5.145,101.4,6.13,1.167,-1.68,96.64137,-9.25,-7.893,90.5,0,109.1,13.59,-8.53,63.4
"2016-01-09 00:33:30",1268638,5.172,102.2,6.004,1.172,-1.684,96.6363,-9.26,-7.91,90.4,0,109.1,13.58,-8.54,64.2
"2016-01-09 00:34:00",1268639,5.218,101.8,6.813,1.104,-1.779,96.6328,-9.27,-7.928,90.5,0,109.2,13.58,-8.55,63.8
"2016-01-09 00:34:30",1268640,5.093,102.8,6.069,1.223,-1.749,96.62292,-9.3,-7.904,90.5,0,109.1,13.58,-8.58,64.8
"2016-01-09 00:35:00",1268641,5.124,103.2,5.748,1.168,-1.765,96.62283,-9.3,-7.941,90.5,0,109.1,13.58,-8.58,65.2
"2016-01-09 00:35:30",1268642,5.147,102.2,5.792,1.161,-1.894,96.62142,-9.3,-7.925,90.5,0,109.1,13.58,-8.58,64.2
"2016-01-09 00:36:00",1268643,4.864,100.5,6.488,1.305,-2.249,96.62308,-9.3,-7.952,90.5,0,109.1,13.57,-8.58,62.5
"2016-01-09 00:36:30",1268644,5.028,100.6,6.457,1.283,-2.49,96.61946,-9.31,-7.985,90.4,0,109.1,13.58,-8.59,62.6
"2016-01-09 00:37:00",1268645,5.164,103.3,6.021,1.191,-1.973,96.6188,-9.31,-7.956,90.5,0,109.1,13.58,-8.59,65.3
"2016-01-09 00:37:30",1268646,4.922,102.8,6.167,1.178,-2.457,96.61736,-9.31,-7.987,90.5,0,109.1,13.58,-8.59,64.8
"2016-01-09 00:38:00",1268647,4.622,99.9,6.7,1.307,-3.289,96.61733,-9.31,-8.01,90.4,0,109.1,13.58,-8.59,61.9
"2016-01-09 00:38:30",1268648,4.917,99.3,6.72,1.294,-2.894,96.61703,-9.31,-8.08,90.4,0,109.1,13.58,-8.59,61.3
"2016-01-09 00:39:00",1268649,4.9,98.8,6.553,1.291,-2.339,96.61594,-9.32,-7.966,90.5,0,109.1,13.58,-8.60,60.8
"2016-01-09 00:39:30",1268650,5.081,102.8,6.206,1.232,-1.622,96.61758,-9.31,-7.959,90.5,0,109.1,13.58,-8.59,64.8
"2016-01-09 00:40:00",1268651,5.162,103.7,6.474,1.159,-1.837,96.61731,-9.31,-7.976,90.5,0,109.1,13.58,-8.59,65.7
"2016-01-09 00:40:30",1268652,4.951,106.6,6.237,1.208,-1.64,96.61758,-9.31,-7.94,90.5,0,109.1,13.59,-8.59,68.6
"2016-01-09 00:41:00",1268653,5.026,108.9,5.85,1.193,-1.772,96.61785,-9.31,-7.951,90.5,0,109.1,13.58,-8.59,70.9
"2016-01-09 00:41:30",1268654,5.057,109.1,6.189,1.164,-2.295,96.61841,-9.31,-7.958,90.5,0,109.1,13.58,-8.59,71.1
"2016-01-09 00:42:00",1268655,5.098,109.4,5.763,1.155,-2.338,96.61841,-9.31,-7.965,90.5,0,109.1,13.59,-8.59,71.4
"2016-01-09 00:42:30",1268656,5.186,109.5,6.046,1.111,-2.421,96.61868,-9.31,-7.973,90.5,0,109.1,13.58,-8.59,71.5
"2016-01-09 00:43:00",1268657,5.03,110.9,6.515,1.156,-2.254,96.61868,-9.31,-7.984,90.5,0,109.1,13.59,-8.59,72.9
"2016-01-09 00:43:30",1268658,4.859,110.4,6.431,1.238,-2.268,96.61868,-9.31,-7.963,90.5,0,109.1,13.58,-8.59,72.4
"2016-01-09 00:44:00",1268659,4.77,109.1,6.188,1.264,-2.679,96.61785,-9.31,-8,90.5,0,109.1,13.58,-8.59,71.1
"2016-01-09 00:44:30",1268660,4.593,108.1,6.569,1.244,-2.735,96.61868,-9.31,-8.04,90.5,0,109.1,13.58,-8.59,70.1
"2016-01-09 00:45:00",1268661,4.518,106.3,6.94,1.266,-2.736,96.61841,-9.31,-7.991,90.5,0,109.1,13.58,-8.59,68.3
"2016-01-09 00:45:30",1268662,4.171,104.4,6.442,1.267,-3.871,96.61868,-9.31,-8.13,90.4,0,109.1,13.59,-8.59,66.4
"2016-01-09 00:46:00",1268663,4.013,107.2,7.081,1.294,-3.547,96.61813,-9.31,-8.09,90.4,0,109.1,13.58,-8.59,69.2
"2016-01-09 00:46:30",1268664,4.161,110.8,6.737,1.296,-2.696,96.61868,-9.31,-8.03,90.5,0,109.1,13.59,-8.59,72.8
"2016-01-09 00:47:00",1268665,4.379,109.8,6.808,1.25,-2.452,96.61726,-9.31,-8.05,90.5,0,109.1,13.59,-8.59,71.8
"2016-01-09 00:47:30",1268666,4.576,111.7,6.282,1.207,-2.241,96.61472,-9.32,-7.984,90.5,0,109.1,13.59,-8.60,73.7
"2016-01-09 00:48:00",1268667,4.701,111.3,6.013,1.15,-1.942,96.61414,-9.32,-7.992,90.5,0,109.1,13.59,-8.60,73.3
"2016-01-09 00:48:30",1268668,4.772,109.7,6.238,1.114,-2.026,96.61102,-9.33,-8.01,90.5,0,109.1,13.59,-8.61,71.7
"2016-01-09 00:49:00",1268669,4.418,112.8,5.989,1.199,-2.376,96.60789,-9.34,-8.01,90.5,0,109.1,13.59,-8.62,74.8
"2016-01-09 00:49:30",1268670,4.496,111.1,6.43,1.151,-2.143,96.60988,-9.33,-8.01,90.6,0,109.1,13.59,-8.61,73.1
"2016-01-09 00:50:00",1268671,4.451,110.5,6.022,1.206,-2.182,96.60619,-9.34,-7.994,90.6,0,109.1,13.59,-8.62,72.5
"2016-01-09 00:50:30",1268672,4.262,111.3,6.507,1.232,-2.787,96.60677,-9.34,-8.01,90.5,0,109.1,13.59,-8.62,73.3
"2016-01-09 00:51:00",1268673,3.988,111.7,6.57,1.277,-3.219,96.60421,-9.35,-8.09,90.5,0,109.1,13.59,-8.63,73.7
"2016-01-09 00:51:30",1268674,3.411,108.3,5.658,1.174,-4.921,96.60534,-9.34,-8.17,90.4,0,109.1,13.58,-8.62,70.3
"2016-01-09 00:52:00",1268675,3.661,110.6,6.376,1.252,-4.188,96.60421,-9.35,-8.11,90.5,0,109.1,13.58,-8.63,72.6
"2016-01-09 00:52:30",1268676,4.631,112.2,6.466,1.17,-2.263,96.60421,-9.35,-8.02,90.6,0,109.1,13.58,-8.63,74.2
"2016-01-09 00:53:00",1268677,4.087,111.7,6.445,1.309,-2.401,96.60392,-9.35,-8.03,90.6,0,109.1,13.58,-8.63,73.7
"2016-01-09 00:53:30",1268678,4.463,112.6,6.851,1.226,-2.523,96.60221,-9.35,-8.05,90.5,0,109.1,13.58,-8.63,74.6
"2016-01-09 00:54:00",1268679,4.545,113.7,6.359,1.166,-2.181,96.60364,-9.35,-8.02,90.6,0,109.1,13.58,-8.63,75.7
"2016-01-09 00:54:30",1268680,4.208,114,6.386,1.247,-2.309,96.60194,-9.35,-8,90.6,0,109.1,13.58,-8.63,76.0
"2016-01-09 00:55:00",1268681,4.36,115.4,6.183,1.182,-2.163,96.60336,-9.35,-7.994,90.6,0,109.1,13.58,-8.63,77.4
"2016-01-09 00:55:30",1268682,4.484,116.3,5.569,1.199,-2.461,96.60562,-9.34,-7.983,90.6,0,109.1,13.58,-8.62,78.3
"2016-01-09 00:56:00",1268683,4.523,115,6.193,1.206,-2.463,96.60364,-9.35,-8.01,90.6,0,109.1,13.58,-8.63,77.0
"2016-01-09 00:56:30",1268684,4.601,116.4,6.076,1.162,-2.863,96.60278,-9.35,-7.984,90.6,0,109.1,13.58,-8.63,78.4
"2016-01-09 00:57:00",1268685,4.418,114.7,6.562,1.21,-3.189,96.6025,-9.35,-8.05,90.6,0,109.1,13.58,-8.63,76.7
"2016-01-09 00:57:30",1268686,3.751,113.2,6.425,1.26,-4.452,96.60136,-9.35,-8.15,90.5,0,109.1,13.58,-8.63,75.2
"2016-01-09 00:58:00",1268687,4.023,114.4,6.288,1.294,-3.889,96.60307,-9.35,-8.08,90.5,0,109.1,13.58,-8.63,76.4
"2016-01-09 00:58:30",1268688,3.909,111.8,6.712,1.303,-3.957,96.60392,-9.35,-8.1,90.5,0,109.1,13.59,-8.63,73.8
"2016-01-09 00:59:00",1268689,4.488,113.3,6.739,1.235,-2.302,96.60364,-9.35,-8.02,90.6,0,109.1,13.59,-8.63,75.3
"2016-01-09 00:59:30",1268690,4.478,112.9,6.306,1.27,-2.066,96.60591,-9.34,-8.01,90.6,0,109.1,13.59,-8.62,74.9
"2016-01-09 01:00:00",1268691,4.544,112.5,6.213,1.265,-2.475,96.60818,-9.34,-8.01,90.6,0,109.1,13.59,-8.62,74.5
"2016-01-09 01:00:30",1268692,4.675,110.7,6.137,1.192,-1.603,96.60307,-9.35,-7.994,90.7,0,109.1,13.59,-8.63,72.7
"2016-01-09 01:01:00",1268693,4.577,111.1,5.805,1.209,-1.887,96.60392,-9.35,-7.994,90.6,0,109.1,13.59,-8.63,73.1
"2016-01-09 01:01:30",1268694,4.869,109.3,5.958,1.103,-1.981,96.60591,-9.34,-7.969,90.7,0,109.1,13.59,-8.62,71.3
"2016-01-09 01:02:00",1268695,4.804,109.9,6.011,1.169,-2.437,96.60591,-9.34,-7.991,90.6,0,109.1,13.59,-8.62,71.9
"2016-01-09 01:02:30",1268696,4.65,108.2,6.32,1.161,-2.641,96.60534,-9.34,-8.02,90.6,0,109.1,13.59,-8.62,70.2
"2016-01-09 01:03:00",1268697,4.602,108.1,6.125,1.168,-2.49,96.60307,-9.35,-8.01,90.6,0,109.1,13.59,-8.63,70.1
"2016-01-09 01:03:30",1268698,4.278,106.4,6.506,1.288,-2.7,96.60278,-9.35,-8,90.6,0,109.1,13.59,-8.63,68.4
"2016-01-09 01:04:00",1268699,4.16,107.1,6.573,1.296,-3.708,96.60307,-9.35,-8.06,90.6,0,109.1,13.59,-8.63,69.1
"2016-01-09 01:04:30",1268700,3.923,104.5,6.481,1.3,-3.953,96.60194,-9.35,-8.13,90.5,0,109.1,13.59,-8.63,66.5
"2016-01-09 01:05:00",1268701,4.259,102.8,6.287,1.307,-3.394,96.60194,-9.35,-8.11,90.6,0,109.1,13.59,-8.63,64.8
"2016-01-09 01:05:30",1268702,4.484,104.7,6.614,1.289,-2.232,96.60136,-9.35,-8.03,90.6,0,109.1,13.59,-8.63,66.7
"2016-01-09 01:06:00",1268703,4.639,107.2,6.365,1.265,-2.221,96.60136,-9.35,-8.03,90.6,0,109.1,13.59,-8.63,69.2
"2016-01-09 01:06:30",1268704,4.672,104.6,6.833,1.252,-2.021,96.60023,-9.36,-8.03,90.7,0,109.1,13.59,-8.64,66.6
"2016-01-09 01:07:00",1268705,4.942,105.5,6.476,1.198,-1.721,96.60023,-9.36,-8,90.7,0,109.1,13.59,-8.64,67.5
"2016-01-09 01:07:30",1268706,5.002,102.8,5.903,1.192,-1.473,96.6008,-9.35,-7.993,90.7,0,109.1,13.59,-8.63,64.8
"2016-01-09 01:08:00",1268707,4.876,102,6.25,1.221,-1.788,96.60023,-9.36,-8,90.7,0,109.1,13.59,-8.64,64.0
"2016-01-09 01:08:30",1268708,5.071,103.2,6.268,1.138,-1.762,96.5988,-9.36,-7.971,90.7,0,109.1,13.58,-8.64,65.2
"2016-01-09 01:09:00",1268709,5.223,100.9,6.402,1.109,-1.986,96.59541,-9.37,-8.01,90.6,0,109.1,13.58,-8.65,62.9
"2016-01-09 01:09:30",1268710,4.684,104.6,6.216,1.202,-2.476,96.59256,-9.37,-8.02,90.6,0,109.1,13.58,-8.66,66.6
"2016-01-09 01:10:00",1268711,4.618,100.4,9.02,1.219,-2.168,96.592,-9.38,-8.02,90.7,0,109.1,13.58,-8.66,62.4
"2016-01-09 01:10:30",1268712,4.535,95.8,7.63,1.246,-2.549,96.59228,-9.38,-8.06,90.6,0,109.1,13.58,-8.66,57.8
"2016-01-09 01:11:00",1268713,4.124,90.5,6.274,1.31,-3.694,96.59256,-9.37,-8.13,90.5,0,109.1,13.58,-8.66,52.5
"2016-01-09 01:11:30",1268714,4.358,94.1,6.824,1.275,-3.461,96.59228,-9.38,-8.08,90.6,0,109.1,13.58,-8.66,56.1
"2016-01-09 01:12:00",1268715,4.426,92.4,6.598,1.28,-3.688,96.59255,-9.37,-8.11,90.6,0,109.1,13.58,-8.66,54.4
"2016-01-09 01:12:30",1268716,4.516,93.6,6.517,1.355,-2.937,96.59228,-9.38,-8.05,90.6,0,109.1,13.58,-8.66,55.6
"2016-01-09 01:13:00",1268717,4.567,91.2,6.478,1.26,-1.99,96.59228,-9.38,-8.07,90.6,0,109.1,13.58,-8.66,53.2
"2016-01-09 01:13:30",1268718,4.926,91.3,6.171,1.219,-1.653,96.59086,-9.38,-8.04,90.6,0,109.1,13.58,-8.66,53.3
"2016-01-09 01:14:00",1268719,5.015,90.2,6.227,1.216,-1.608,96.58802,-9.39,-8.04,90.6,0,109.1,13.59,-8.67,52.2
"2016-01-09 01:14:30",1268720,4.937,91.3,5.901,1.21,-1.654,96.58745,-9.39,-8.02,90.6,0,109.1,13.59,-8.67,53.3
"2016-01-09 01:15:00",1268721,5.163,87.7,6.019,1.157,-1.71,96.58489,-9.39,-8.05,90.6,0,109.1,13.59,-8.68,49.7
"2016-01-09 01:15:30",1268722,5.012,87.5,6.552,1.187,-1.804,96.58489,-9.39,-8.02,90.6,0,109.1,13.59,-8.68,49.5
"2016-01-09 01:16:00",1268723,4.986,86.6,6.022,1.225,-1.914,96.58461,-9.39,-8.02,90.6,0,109.1,13.59,-8.68,48.6
"2016-01-09 01:16:30",1268724,5.239,84.2,6.031,1.165,-2.126,96.58461,-9.39,-8.05,90.6,0,109.1,13.59,-8.68,46.2
"2016-01-09 01:17:00",1268725,5.068,82.6,6.141,1.234,-1.97,96.58461,-9.39,-8.07,90.6,0,109.1,13.59,-8.68,44.6
"2016-01-09 01:17:30",1268726,5.161,82.3,5.906,1.156,-1.746,96.58488,-9.39,-8.04,90.6,0,109.1,13.59,-8.68,44.3
"2016-01-09 01:18:00",1268727,4.932,80.3,6.533,1.26,-2.696,96.58461,-9.39,-8.06,90.6,0,109.1,13.59,-8.68,42.3
"2016-01-09 01:18:30",1268728,4.956,80.6,6.282,1.267,-2.332,96.58517,-9.39,-8.09,90.6,0,109.1,13.59,-8.67,42.6
"2016-01-09 01:19:00",1268729,5.23,80.5,5.884,1.158,-2.055,96.58517,-9.39,-8.1,90.5,0,109.1,13.59,-8.67,42.5
"2016-01-09 01:19:30",1268730,4.055,73.03,5.368,1.153,-4.204,96.58517,-9.39,-8.16,90.5,0,109.1,13.59,-8.67,35.0
"2016-01-09 01:20:00",1268731,4.949,78.03,6.283,1.263,-2.262,96.58517,-9.39,-8.09,90.6,0,109.1,13.59,-8.67,40.0
"2016-01-09 01:20:30",1268732,4.98,75.81,6.513,1.265,-2.413,96.58461,-9.39,-8.07,90.6,0,109.1,13.59,-8.68,37.8
"2016-01-09 01:21:00",1268733,4.967,76.4,6.471,1.259,-2.072,96.58488,-9.39,-8.09,90.6,0,109.1,13.59,-8.68,38.4
"2016-01-09 01:21:30",1268734,5.168,77.31,6.164,1.161,-1.079,96.58461,-9.39,-8.05,90.6,0,109.1,13.59,-8.68,39.3
"2016-01-09 01:22:00",1268735,5.024,77.9,6.204,1.222,-1.739,96.58571,-9.39,-8.05,90.6,0,109.1,13.59,-8.67,39.9
"2016-01-09 01:22:30",1268736,5.298,76.67,6.262,1.119,-1.534,96.58626,-9.39,-8.07,90.6,0,109.1,13.59,-8.67,38.7
"2016-01-09 01:23:00",1268737,5.151,76.82,5.703,1.202,-1.842,96.58598,-9.39,-8.04,90.6,0,109.1,13.59,-8.67,38.8
"2016-01-09 01:23:30",1268738,5.242,75.89,6.144,1.163,-2.228,96.58736,-9.39,-8.06,90.6,0,109.1,13.59,-8.67,37.9
"2016-01-09 01:24:00",1268739,5.24,75.89,6.117,1.159,-1.818,96.58598,-9.39,-8.05,90.7,0,109.1,13.59,-8.67,37.9
"2016-01-09 01:24:30",1268740,5.189,76,5.974,1.156,-1.863,96.58823,-9.39,-8.03,90.6,0,109.1,13.59,-8.67,38.0
"2016-01-09 01:25:00",1268741,5.288,76.49,6.046,1.155,-2.377,96.58934,-9.38,-8.07,90.6,0,109.1,13.59,-8.66,38.5
"2016-01-09 01:25:30",1268742,5.116,76.16,6.123,1.24,-2.489,96.59081,-9.38,-8.05,90.6,0,109.1,13.58,-8.66,38.2
"2016-01-09 01:26:00",1268743,5.025,75.84,6.334,1.218,-2.447,96.59476,-9.37,-8.08,90.6,0,109.1,13.58,-8.65,37.8
"2016-01-09 01:26:30",1268744,5.277,77.12,6.213,1.119,-1.94,96.59641,-9.36,-8.09,90.6,0,109.1,13.58,-8.65,39.1
"2016-01-09 01:27:00",1268745,4.542,74.54,6.633,1.284,-3.145,96.59612,-9.37,-8.13,90.6,0,109.1,13.58,-8.65,36.5
"2016-01-09 01:27:30",1268746,4.453,74.57,6.745,1.263,-3.131,96.59777,-9.36,-8.15,90.6,0,109.1,13.58,-8.64,36.6
"2016-01-09 01:28:00",1268747,4.539,74.61,6.791,1.308,-2.993,96.59981,-9.36,-8.05,90.7,0,109.1,13.58,-8.64,36.6
"2016-01-09 01:28:30",1268748,4.941,78.04,6.129,1.274,-2.102,96.60182,-9.35,-8.06,90.6,0,109.1,13.58,-8.63,40.0
"2016-01-09 01:29:00",1268749,4.904,78.88,6.329,1.282,-1.634,96.60381,-9.35,-8.03,90.7,0,109.1,13.56,-8.63,40.9
"2016-01-09 01:29:30",1268750,5,80.3,6.118,1.226,-1.533,96.6035,-9.35,-8.03,90.7,0,109.1,13.56,-8.63,42.3
"2016-01-09 01:30:00",1268751,4.94,80.6,5.906,1.284,-1.682,96.60296,-9.35,-8.01,90.7,0,109.1,13.56,-8.63,42.6
"2016-01-09 01:30:30",1268752,5.028,78.85,6.545,1.246,-2.021,96.603,-9.35,-8.01,90.7,0,109.1,13.54,-8.63,40.8
"2016-01-09 01:31:00",1268753,5.163,79.69,6.111,1.148,-1.766,96.6077,-9.34,-8.02,90.7,0,109.1,13.56,-8.62,41.7
"2016-01-09 01:31:30",1268754,5.027,79.74,5.886,1.243,-2.175,96.61168,-9.33,-7.989,90.7,0,109.1,13.55,-8.61,41.7
"2016-01-09 01:32:00",1268755,5.118,78.83,6.232,1.192,-2.224,96.61253,-9.32,-8.02,90.7,0,109.1,13.54,-8.60,40.8
"2016-01-09 01:32:30",1268756,4.967,78.6,6.547,1.234,-2.061,96.61704,-9.31,-8.02,90.7,0,109.1,13.54,-8.59,40.6
"2016-01-09 01:33:00",1268757,4.732,78.08,6.662,1.334,-2.522,96.61875,-9.31,-8.04,90.7,0,109.1,13.54,-8.59,40.1
"2016-01-09 01:33:30",1268758,4.146,75.04,6.839,1.284,-3.672,96.62297,-9.3,-8.08,90.6,0,109.1,13.53,-8.58,37.0
"2016-01-09 01:34:00",1268759,4.421,77.02,6.762,1.349,-3.262,96.62441,-9.29,-8.08,90.6,0,109.1,13.53,-8.57,39.0
"2016-01-09 01:34:30",1268760,4.323,76.77,6.936,1.338,-3.244,96.62359,-9.3,-8.11,90.6,0,109.1,13.53,-8.58,38.8
"2016-01-09 01:35:00",1268761,4.557,78.27,6.714,1.292,-3.063,96.62333,-9.3,-8.08,90.6,0,109.1,13.53,-8.58,40.3
"2016-01-09 01:35:30",1268762,4.72,79.77,6.479,1.304,-2.061,96.62334,-9.3,-8.02,90.7,0,109.1,13.52,-8.58,41.8
"2016-01-09 01:36:00",1268763,4.783,80.6,6.628,1.237,-1.902,96.62307,-9.3,-8.01,90.7,0,109.1,13.51,-8.58,42.6
"2016-01-09 01:36:30",1268764,4.853,81.2,6.225,1.254,-1.694,96.62225,-9.3,-7.983,90.7,0,109.1,13.5,-8.58,43.2
"2016-01-09 01:37:00",1268765,5.034,80.1,6.39,1.173,-1.896,96.62252,-9.3,-7.975,90.7,0,109.1,13.48,-8.58,42.1
"2016-01-09 01:37:30",1268766,4.966,79.43,6.662,1.176,-2.049,96.62307,-9.3,-7.99,90.7,0,109.1,13.48,-8.58,41.4
"2016-01-09 01:38:00",1268767,4.676,80.5,6.762,1.303,-2.08,96.6228,-9.3,-8,90.7,0,109.1,13.47,-8.58,42.5
"2016-01-09 01:38:30",1268768,4.741,82,6.519,1.265,-1.663,96.62142,-9.3,-7.988,90.7,0,109.1,13.46,-8.58,44.0
"2016-01-09 01:39:00",1268769,4.685,82.5,6.282,1.272,-1.92,96.62252,-9.3,-7.972,90.7,0,109.1,13.45,-8.58,44.5
"2016-01-09 01:39:30",1268770,4.632,82.4,6.302,1.309,-2.186,96.6217,-9.3,-7.985,90.7,0,109.1,13.44,-8.58,44.4
"2016-01-09 01:40:00",1268771,4.207,78.54,7.025,1.396,-3.374,96.62225,-9.3,-8.04,90.6,0,109.1,13.43,-8.58,40.5
"2016-01-09 01:40:30",1268772,3.578,75.98,6.506,1.326,-4.201,96.62334,-9.3,-8.16,90.5,0,109.1,13.43,-8.58,38.0
"2016-01-09 01:41:00",1268773,4.009,79.39,7.007,1.373,-3.298,96.62252,-9.3,-8.07,90.6,0,109.1,13.42,-8.58,41.4
"2016-01-09 01:41:30",1268774,4.385,80.6,6.953,1.307,-2.784,96.6206,-9.3,-8.02,90.6,0,109.1,13.41,-8.58,42.6
"2016-01-09 01:42:00",1268775,4.629,81.9,6.782,1.274,-2.102,96.6206,-9.3,-7.991,90.7,0,109.1,13.4,-8.58,43.9
"2016-01-09 01:42:30",1268776,4.284,83.1,7.188,1.312,-2.021,96.61977,-9.31,-7.998,90.7,0,109.1,13.39,-8.59,45.1
"2016-01-09 01:43:00",1268777,4.206,84.1,6.68,1.333,-1.926,96.61977,-9.31,-7.963,90.7,0,109.1,13.38,-8.59,46.1
"2016-01-09 01:43:30",1268778,4.688,83.1,6.572,1.176,-1.657,96.61923,-9.31,-7.99,90.7,0,109.2,13.37,-8.59,45.1
"2016-01-09 01:44:00",1268779,4.269,82.8,6.882,1.363,-2.298,96.61895,-9.31,-7.989,90.7,0,109.1,13.36,-8.59,44.8
"2016-01-09 01:44:30",1268780,4.41,84.1,6.794,1.313,-2.257,96.61868,-9.31,-8.08,90.6,0,109.1,13.36,-8.59,46.1
"2016-01-09 01:45:00",1268781,3.966,81.9,7.081,1.39,-3.155,96.6195,-9.31,-8.07,90.6,0,109.1,13.35,-8.59,43.9
"2016-01-09 01:45:30",1268782,4.11,81.5,6.977,1.388,-3.464,96.61895,-9.31,-8.04,90.6,0,109.1,13.34,-8.59,43.5
"2016-01-09 01:46:00",1268783,4.675,84.6,6.732,1.314,-1.838,96.61868,-9.31,-7.969,90.7,0,109.1,13.34,-8.59,46.6
"2016-01-09 01:46:30",1268784,4.583,83.2,6.988,1.344,-1.903,96.61868,-9.31,-7.976,90.7,0,109.1,13.33,-8.59,45.2
"2016-01-09 01:47:00",1268785,4.412,82,6.66,1.362,-2.229,96.61868,-9.31,-8.01,90.6,0,109.1,13.33,-8.59,44.0
"2016-01-09 01:47:30",1268786,4.659,83.6,6.506,1.271,-1.695,96.61868,-9.31,-7.968,90.6,0,109.1,13.33,-8.59,45.6